FW8439 Weather Reports


time (UTC)temp
C
wind
direction
speed
KPH
gust
KPH
rain 1hr
cm
rain 24hr
cm
rain mn
cm
humidity
%
barometer
mb
20260508175511 15 5 1.6 16.1 0.00 0.08 0.00 45 1017.4
20260508175012 15 147 6.4 16.1 0.00 0.08 0.00 43 1017.5
20260508174526 15 360 1.6 16.1 0.00 0.08 0.00 39 1017.6
20260508174010 15 50 4.8 16.1 0.00 0.08 0.00 37 1017.8
20260508173509 15 341 6.4 16.1 0.00 0.08 0.00 44 1017.9
20260508173019 15 308 3.2 12.9 0.00 0.08 0.00 43 1017.9
20260508172509 14 17 1.6 9.7 0.00 0.08 0.00 42 1018.0
20260508172010 14 16 3.2 11.3 0.00 0.08 0.00 46 1018.0
20260508171529 14 114 3.2 11.3 0.00 0.08 0.00 43 1018.2
20260508171010 15 53 3.2 14.5 0.00 0.08 0.00 43 1018.2
20260508170510 14 9 4.8 14.5 0.00 0.08 0.00 40 1018.2
20260508170027 15 22 1.6 16.1 0.00 0.08 0.00 43 1018.2
20260508165509 15 17 6.4 16.1 0.00 0.08 0.00 46 1018.3
20260508165010 15 333 3.2 14.5 0.00 0.08 0.00 47 1018.4
20260508164528 14 332 3.2 16.1 0.00 0.08 0.00 44 1018.5
20260508164010 13 72 3.2 16.1 0.00 0.08 0.00 49 1018.5
20260508163508 14 121 4.8 12.9 0.00 0.08 0.00 45 1018.4
20260508163027 14 281 3.2 17.7 0.00 0.08 0.00 49 1018.4
20260508162506 15 5 6.4 17.7 0.00 0.08 0.00 49 1018.5
20260508162007 15 308 4.8 16.1 0.00 0.08 0.00 49 1018.5
20260508161524 15 327 3.2 17.7 0.00 0.08 0.00 48 1018.7
20260508161012 14 112 6.4 17.7 0.00 0.08 0.00 48 1018.8
20260508160509 15 92 4.8 17.7 0.00 0.08 0.00 51 1018.8
20260508160024 15 360 4.8 17.7 0.00 0.08 0.00 45 1018.8
20260508155514 15 19 3.2 17.7 0.00 0.08 0.00 48 1018.8
20260508155011 15 14 1.6 6.4 0.00 0.08 0.00 53 1018.9
20260508154535 15 285 1.6 11.3 0.00 0.08 0.00 53 1018.9
20260508154009 14 314 3.2 11.3 0.00 0.08 0.00 53 1018.9
20260508153511 13 309 3.2 9.7 0.00 0.08 0.00 51 1018.9
20260508153025 13 118 3.2 9.7 0.00 0.08 0.00 52 1018.9
20260508152506 13 26 4.8 12.9 0.00 0.08 0.00 50 1018.9
20260508152009 14 355 3.2 12.9 0.00 0.08 0.00 47 1018.9
20260508151532 13 340 3.2 6.4 0.00 0.08 0.00 44 1018.9
20260508151013 13 330 1.6 12.9 0.00 0.08 0.00 49 1019.0
20260508150509 13 360 1.6 12.9 0.00 0.08 0.00 42 1019.0
20260508150029 13 45 3.2 8.0 0.00 0.08 0.00 45 1019.0
20260508145511 13 319 3.2 8.0 0.00 0.08 0.00 41 1019.0
20260508145007 12 319 0.0 6.4 0.00 0.08 0.00 56 1018.9
20260508144507 12 319 1.6 6.4 0.00 0.08 0.00 47 1019.0
20260508144006 11 319 1.6 4.8 0.00 0.08 0.00 61 1019.0
20260508143510 11 319 0.0 8.0 0.00 0.08 0.00 42 1019.0
20260508143008 12 319 3.2 8.0 0.00 0.08 0.00 47 1019.1
20260508142504 11 319 0.0 0.0 0.00 0.08 0.00 66 1019.2
20260508142006 11 319 0.0 0.0 0.00 0.08 0.00 70 1019.2
20260508141516 11 319 0.0 0.0 0.00 0.08 0.00 69 1019.2
20260508141010 11 319 0.0 0.0 0.00 0.08 0.00 70 1019.1
20260508140506 11 319 0.0 0.0 0.00 0.08 0.00 50 1019.2
20260508140030 10 319 0.0 0.0 0.00 0.08 0.00 68 1019.2
20260508135510 9 319 0.0 0.0 0.00 0.08 0.00 71 1019.2
20260508135004 9 319 0.0 0.0 0.00 0.08 0.00 73 1019.2
20260508134520 9 319 0.0 0.0 0.00 0.08 0.00 79 1019.2
20260508134008 8 319 0.0 0.0 0.00 0.08 0.00 77 1019.1
20260508133512 8 319 0.0 3.2 0.00 0.08 0.00 77 1019.1
20260508133012 7 319 0.0 3.2 0.00 0.08 0.00 76 1019.0
20260508132506 8 319 0.0 4.8 0.00 0.08 0.00 71 1018.9
20260508132011 8 319 0.0 4.8 0.00 0.08 0.00 66 1019.0
20260508131509 8 319 0.0 3.2 0.00 0.08 0.00 62 1019.1
20260508131006 8 319 0.0 3.2 0.00 0.08 0.00 58 1019.0
20260508130510 7 319 0.0 3.2 0.00 0.08 0.00 62 1019.0
20260508130018 7 319 0.0 3.2 0.00 0.08 0.00 66 1019.0
20260508125509 7 319 0.0 3.2 0.00 0.08 0.00 78 1019.1
20260508125010 6 319 0.0 3.2 0.00 0.08 0.00 76 1019.0
20260508124529 6 319 0.0 0.0 0.00 0.08 0.00 81 1018.9
20260508124004 5 319 0.0 1.6 0.00 0.08 0.00 83 1018.9
20260508123507 5 319 0.0 1.6 0.00 0.08 0.00 87 1018.9
20260508123024 5 319 0.0 3.2 0.00 0.08 0.00 88 1018.8
20260508122510 5 319 0.0 3.2 0.00 0.08 0.00 91 1018.8
20260508122010 4 319 0.0 0.0 0.00 0.10 0.00 92 1018.8
20260508121519 3 319 0.0 0.0 0.00 0.10 0.00 93 1018.8
20260508121008 3 319 0.0 0.0 0.00 0.10 0.00 94 1018.7
20260508120508 3 319 0.0 0.0 0.00 0.10 0.00 95 1018.6
20260508120014 2 319 0.0 0.0 0.00 0.10 0.00 95 1018.6
20260508115510 2 319 0.0 0.0 0.00 0.10 0.00 95 1018.5
20260508115003 2 319 0.0 0.0 0.00 0.10 0.00 95 1018.6
20260508114512 2 319 0.0 0.0 0.00 0.10 0.00 95 1018.4
20260508114008 2 319 0.0 0.0 0.00 0.10 0.00 95 1018.2
20260508113508 2 319 0.0 0.0 0.00 0.13 0.00 95 1018.1
20260508113022 1 319 0.0 0.0 0.00 0.13 0.00 95 1018.1
20260508112509 1 319 0.0 0.0 0.00 0.15 0.00 95 1017.9
20260508112009 1 319 0.0 0.0 0.00 0.15 0.00 95 1017.9
20260508111522 1 319 0.0 0.0 0.00 0.15 0.00 95 1017.8
20260508111011 0 319 0.0 0.0 0.00 0.15 0.00 95 1017.7
20260508110507 0 319 0.0 0.0 0.00 0.15 0.00 95 1017.7
20260508110016 0 319 0.0 0.0 0.00 0.15 0.00 95 1017.7
20260508105507 0 334 0.0 0.0 0.00 0.15 0.00 95 1017.7
20260508105007 0 334 0.0 0.0 0.00 0.15 0.00 95 1017.7
20260508104512 0 334 0.0 0.0 0.00 0.15 0.00 94 1017.5
20260508104007 0 334 0.0 0.0 0.00 0.15 0.00 95 1017.4
20260508103507 0 334 0.0 0.0 0.00 0.15 0.00 95 1017.2
20260508103020 0 51 0.0 0.0 0.00 0.15 0.00 95 1017.2
20260508102507 1 51 0.0 0.0 0.00 0.15 0.00 95 1017.0
20260508102011 1 51 0.0 0.0 0.00 0.15 0.00 95 1017.0
20260508101516 1 51 0.0 1.6 0.00 0.15 0.00 95 1017.0
20260508101008 1 51 0.0 1.6 0.00 0.15 0.00 95 1017.0
20260508100507 1 51 0.0 1.6 0.00 0.15 0.00 95 1016.8
20260508100026 1 51 0.0 3.2 0.00 0.15 0.00 95 1016.7
20260508095507 1 51 0.0 3.2 0.00 0.15 0.00 95 1016.7
20260508095008 1 51 0.0 3.2 0.00 0.15 0.00 95 1016.8
20260508094540 1 51 0.0 1.6 0.00 0.15 0.00 95 1016.7
20260508094007 1 51 0.0 1.6 0.00 0.15 0.00 95 1016.8
20260508093507 1 51 0.0 0.0 0.00 0.15 0.00 95 1016.7
20260508093026 1 51 0.0 1.6 0.00 0.15 0.00 95 1016.8
20260508092514 2 51 0.0 1.6 0.00 0.15 0.00 95 1016.7
20260508092007 2 51 0.0 0.0 0.00 0.15 0.00 95 1016.8
20260508091539 2 51 0.0 0.0 0.00 0.15 0.00 95 1016.7
20260508091006 2 51 0.0 0.0 0.00 0.18 0.00 95 1016.7
20260508090510 2 51 0.0 1.6 0.00 0.18 0.00 95 1016.7
20260508090018 2 51 0.0 1.6 0.00 0.18 0.00 95 1016.7
20260508085512 2 51 0.0 1.6 0.00 0.18 0.00 95 1016.7
20260508085002 2 51 0.0 1.6 0.00 0.18 0.00 95 1016.7
20260508084502 2 51 0.0 1.6 0.00 0.18 0.00 95 1016.7
20260508084004 2 51 0.0 3.2 0.00 0.18 0.00 95 1016.8
20260508083505 2 51 0.0 3.2 0.00 0.18 0.00 95 1016.7
20260508083003 2 51 0.0 3.2 0.00 0.18 0.00 95 1016.7
20260508082503 3 51 0.0 3.2 0.00 0.18 0.00 95 1016.7
20260508082003 3 51 0.0 3.2 0.00 0.18 0.00 95 1016.7
20260508081518 3 51 0.0 3.2 0.00 0.18 0.00 95 1016.6
20260508081004 3 51 0.0 1.6 0.00 0.18 0.00 95 1016.6
20260508080504 3 51 0.0 3.2 0.00 0.18 0.00 95 1016.6
20260508080004 3 51 0.0 3.2 0.00 0.18 0.00 95 1016.5
20260508075504 3 43 0.0 4.8 0.00 0.18 0.00 95 1016.5
20260508075003 3 43 0.0 4.8 0.00 0.18 0.00 95 1016.5
20260508074504 3 130 0.0 3.2 0.00 0.18 0.00 95 1016.5
20260508074003 3 130 0.0 3.2 0.00 0.18 0.00 95 1016.5
20260508073503 3 130 0.0 0.0 0.00 0.18 0.00 95 1016.5
20260508073004 3 130 0.0 0.0 0.00 0.18 0.00 95 1016.5
20260508072504 3 130 0.0 1.6 0.00 0.18 0.00 95 1016.5
20260508072004 3 130 0.0 3.2 0.00 0.18 0.00 95 1016.6
20260508071514 4 130 0.0 3.2 0.00 0.18 0.00 95 1016.6
20260508071003 4 130 0.0 1.6 0.00 0.18 0.00 95 1016.4
20260508070504 4 130 0.0 1.6 0.00 0.18 0.00 95 1016.4
20260508070003 4 130 0.0 1.6 0.00 0.18 0.00 95 1016.5
20260508065505 4 130 0.0 1.6 0.00 0.18 0.00 95 1016.6
20260508065003 4 130 0.0 1.6 0.00 0.18 0.00 95 1016.6
20260508064506 5 130 0.0 1.6 0.00 0.18 0.00 95 1016.7
20260508064002 5 130 0.0 3.2 0.00 0.18 0.00 95 1016.6
20260508063502 5 130 0.0 3.2 0.00 0.18 0.00 95 1016.6
20260508063007 5 130 0.0 1.6 0.00 0.20 0.00 95 1016.7
20260508062503 5 130 0.0 1.6 0.00 0.20 0.00 95 1016.8
20260508062002 5 130 0.0 1.6 0.00 0.20 0.00 95 1016.7
20260508061503 5 130 0.0 1.6 0.00 0.20 0.00 95 1016.8
20260508061002 5 130 0.0 3.2 0.00 0.20 0.00 95 1016.9
20260508060502 5 130 0.0 3.2 0.00 0.20 0.00 95 1016.7
20260508060008 5 236 0.0 1.6 0.00 0.20 0.00 95 1016.9
20260508055503 5 236 0.0 1.6 0.00 0.20 0.00 95 1017.0
20260508055014 5 236 0.0 1.6 0.00 0.20 0.00 95 1017.0
20260508054529 6 236 0.0 1.6 0.00 0.20 0.00 95 1017.0
20260508054009 6 236 0.0 3.2 0.00 0.20 0.00 95 1017.0
20260508053507 6 236 0.0 3.2 0.00 0.20 0.00 95 1016.9
20260508053020 6 236 0.0 3.2 0.00 0.20 0.00 95 1016.8
20260508052506 6 236 0.0 3.2 0.00 0.20 0.00 95 1016.7
20260508052010 6 236 0.0 3.2 0.00 0.20 0.00 95 1016.8
20260508051519 6 236 0.0 3.2 0.00 0.20 0.00 95 1017.0
20260508051011 6 236 0.0 4.8 0.00 0.20 0.00 95 1016.8
20260508050510 6 236 0.0 4.8 0.00 0.20 0.00 95 1016.8
20260508050021 6 284 0.0 4.8 0.00 0.20 0.00 95 1016.7
20260508045506 6 310 0.0 3.2 0.00 0.20 0.00 95 1016.7
20260508045013 6 310 0.0 3.2 0.00 0.20 0.00 95 1016.6
20260508044518 6 290 0.0 4.8 0.00 0.20 0.00 95 1016.6
20260508044010 7 290 0.0 6.4 0.00 0.20 0.00 95 1016.5
20260508043505 7 355 1.6 6.4 0.00 0.20 0.00 95 1016.4
20260508043025 7 355 0.0 3.2 0.00 0.20 0.00 95 1016.5
20260508042512 7 355 1.6 3.2 0.00 0.20 0.00 95 1016.4
20260508042011 7 355 0.0 1.6 0.00 0.20 0.00 95 1016.5
20260508041525 7 355 0.0 6.4 0.00 0.20 0.00 95 1016.5
20260508041010 7 355 0.0 6.4 0.00 0.20 0.00 95 1016.3
20260508040507 7 311 0.0 3.2 0.00 0.20 0.00 95 1016.3
20260508040030 7 311 0.0 3.2 0.00 0.20 0.00 95 1016.3
20260508035506 7 311 0.0 3.2 0.00 0.20 0.20 95 1016.3
20260508035011 7 311 0.0 4.8 0.00 0.20 0.20 95 1016.2
20260508034520 7 345 1.6 4.8 0.00 0.20 0.20 95 1016.0
20260508034007 7 335 0.0 4.8 0.00 0.20 0.20 95 1016.0
20260508033507 6 335 0.0 6.4 0.00 0.20 0.20 95 1016.2
20260508033024 6 335 1.6 6.4 0.00 0.20 0.20 95 1016.3
20260508032508 6 256 0.0 1.6 0.00 0.20 0.20 95 1016.3
20260508032012 7 255 0.0 1.6 0.00 0.20 0.20 95 1016.2
20260508031523 6 256 0.0 3.2 0.00 0.20 0.20 95 1016.2
20260508031009 6 256 0.0 3.2 0.00 0.20 0.20 95 1016.2
20260508030512 6 255 0.0 3.2 0.00 0.20 0.20 95 1016.2
20260508030026 6 256 0.0 3.2 0.00 0.20 0.20 95 1016.2
20260508025512 6 256 0.0 1.6 0.00 0.20 0.20 95 1016.2
20260508025003 6 255 0.0 1.6 0.00 0.20 0.20 95 1016.1
20260508024503 6 255 0.0 1.6 0.00 0.20 0.20 95 1016.0
20260508024004 6 256 0.0 1.6 0.00 0.20 0.20 95 1015.9
20260508023504 6 256 0.0 1.6 0.00 0.20 0.20 95 1016.0
20260508023006 6 255 0.0 1.6 0.00 0.20 0.20 95 1015.9
20260508022503 6 256 0.0 3.2 0.00 0.23 0.20 95 1016.0
20260508022004 6 255 0.0 3.2 0.00 0.23 0.20 95 1015.9
20260508021504 6 255 0.0 1.6 0.00 0.23 0.20 95 1015.9
20260508021008 6 255 0.0 3.2 0.00 0.25 0.20 95 1016.0
20260508020503 6 256 0.0 3.2 0.00 0.25 0.20 95 1015.9
20260508020006 6 256 0.0 0.0 0.00 0.28 0.20 95 1015.8
20260508015502 6 256 0.0 0.0 0.00 0.30 0.20 95 1015.7
20260508015004 6 256 0.0 0.0 0.00 0.30 0.20 95 1015.6
20260508014511 6 256 0.0 0.0 0.00 0.30 0.20 95 1015.7
20260508014004 6 256 0.0 0.0 0.00 0.33 0.20 95 1015.7
20260508013503 6 255 0.0 0.0 0.00 0.33 0.20 95 1015.6
20260508013004 6 255 0.0 3.2 0.00 0.36 0.20 95 1015.5
20260508012505 6 255 0.0 3.2 0.00 0.36 0.20 95 1015.4
20260508012003 5 255 0.0 1.6 0.00 0.38 0.20 95 1015.4
20260508011509 5 256 0.0 0.0 0.00 0.41 0.20 94 1015.3
20260508011005 6 255 0.0 0.0 0.00 0.41 0.20 94 1015.2
20260508010502 6 255 0.0 0.0 0.00 0.43 0.20 95 1015.2
20260508010005 6 255 0.0 0.0 0.00 0.43 0.20 95 1015.2
20260508005507 6 256 0.0 11.3 0.00 0.43 0.20 95 1015.0
20260508005003 6 255 0.0 11.3 0.00 0.46 0.20 95 1014.9
20260508004505 6 247 0.0 3.2 0.00 0.46 0.20 95 1014.8
20260508004009 6 247 0.0 3.2 0.00 0.48 0.20 95 1014.7
20260508003507 6 247 0.0 3.2 0.00 0.48 0.20 95 1014.5
20260508003005 6 247 0.0 1.6 0.00 0.48 0.20 95 1014.6
20260508002503 6 247 0.0 0.0 0.00 0.48 0.20 95 1014.7
20260508002004 6 247 0.0 3.2 0.00 0.48 0.20 95 1014.6
20260508001537 6 247 0.0 3.2 0.00 0.48 0.20 95 1014.7
20260508001009 6 247 0.0 1.6 0.00 0.51 0.20 94 1014.6
20260508000508 7 247 0.0 0.0 0.00 0.51 0.20 94 1014.7
20260508000013 7 314 0.0 3.2 0.00 0.51 0.20 94 1014.6
20260507235503 7 314 0.0 3.2 0.00 0.51 0.20 95 1014.6
20260507235003 7 314 0.0 3.2 0.00 0.51 0.20 95 1014.6
20260507234510 7 314 0.0 3.2 0.00 0.51 0.20 94 1014.7
20260507234006 7 314 0.0 4.8 0.00 0.51 0.20 94 1014.7
20260507233503 7 237 0.0 4.8 0.00 0.51 0.20 94 1014.7
20260507233019 7 237 0.0 4.8 0.00 0.51 0.20 94 1014.7
20260507232508 7 247 0.0 3.2 0.00 0.51 0.20 95 1014.8
20260507232005 7 247 0.0 3.2 0.00 0.51 0.20 95 1014.8
20260507231510 7 162 0.0 4.8 0.03 0.53 0.20 94 1014.8
20260507231004 7 98 0.0 4.8 0.03 0.53 0.20 94 1014.8
20260507230506 7 85 0.0 4.8 0.03 0.53 0.20 94 1014.9
20260507230020 7 136 1.6 9.7 0.03 0.53 0.20 94 1014.8
20260507225506 7 318 0.0 9.7 0.03 0.53 0.20 94 1014.7
20260507225004 7 347 0.0 3.2 0.03 0.53 0.20 94 1014.8
20260507224529 7 347 0.0 3.2 0.05 0.53 0.20 94 1014.8
20260507224004 7 221 0.0 3.2 0.05 0.53 0.20 94 1014.9
20260507223506 7 188 0.0 4.8 0.05 0.53 0.20 94 1014.8
20260507223020 7 335 0.0 4.8 0.05 0.53 0.20 94 1014.7
20260507222505 7 294 0.0 1.6 0.05 0.53 0.20 95 1014.6
20260507222007 7 294 0.0 1.6 0.08 0.53 0.20 94 1014.6
20260507221524 7 294 0.0 1.6 0.05 0.51 0.18 94 1014.6
20260507221005 7 294 0.0 0.0 0.05 0.51 0.18 94 1014.6
20260507220505 7 294 0.0 0.0 0.05 0.51 0.18 94 1014.4
20260507220018 7 294 0.0 3.2 0.05 0.51 0.18 94 1014.4
20260507215505 7 294 0.0 3.2 0.05 0.51 0.18 94 1014.4
20260507215005 7 294 0.0 3.2 0.05 0.51 0.18 94 1014.4
20260507214508 7 294 0.0 4.8 0.03 0.48 0.15 93 1014.4
20260507214007 7 294 0.0 4.8 0.03 0.48 0.15 94 1014.3
20260507213508 7 140 0.0 6.4 0.03 0.48 0.15 93 1014.4
20260507213008 8 173 0.0 6.4 0.03 0.48 0.15 94 1014.3
20260507212507 8 17 0.0 0.0 0.03 0.48 0.15 94 1014.1
20260507212007 8 17 0.0 4.8 0.00 0.46 0.13 93 1014.2
20260507211512 8 17 0.0 4.8 0.00 0.46 0.13 94 1014.0
20260507211010 8 254 0.0 6.4 0.00 0.46 0.13 93 1014.0
20260507210504 8 140 0.0 6.4 0.00 0.46 0.13 93 1014.0
20260507210023 8 238 0.0 4.8 0.00 0.46 0.13 93 1013.8
20260507205506 8 9 0.0 4.8 0.00 0.46 0.13 93 1013.7
20260507205006 8 9 0.0 3.2 0.00 0.46 0.13 93 1013.7
20260507204519 8 9 0.0 3.2 0.00 0.46 0.13 93 1013.6
20260507204006 8 5 0.0 3.2 0.00 0.46 0.13 93 1013.5
20260507203504 8 303 0.0 3.2 0.00 0.46 0.13 92 1013.5
20260507203016 9 323 0.0 3.2 0.00 0.46 0.13 92 1013.6
20260507202506 9 236 0.0 3.2 0.00 0.46 0.13 92 1013.7
20260507202007 9 261 0.0 3.2 0.00 0.46 0.13 92 1013.7
20260507201524 10 238 0.0 3.2 0.00 0.46 0.13 92 1013.6
20260507201005 10 292 0.0 8.0 0.00 0.46 0.13 91 1013.6
20260507200508 10 344 0.0 8.0 0.00 0.46 0.13 91 1013.4
20260507200015 10 323 0.0 4.8 0.00 0.46 0.13 92 1013.3
20260507195508 10 277 0.0 4.8 0.00 0.46 0.13 92 1013.3
20260507195007 10 277 1.6 4.8 0.00 0.46 0.13 92 1013.3
20260507194510 10 267 0.0 4.8 0.00 0.46 0.13 92 1013.4
20260507194009 10 327 0.0 6.4 0.00 0.46 0.13 92 1013.4
20260507193508 10 200 0.0 6.4 0.00 0.46 0.13 91 1013.4
20260507193009 10 140 0.0 4.8 0.00 0.46 0.13 91 1013.4
20260507192505 11 140 0.0 4.8 0.00 0.46 0.13 92 1013.4
20260507192006 11 296 0.0 3.2 0.00 0.46 0.13 91 1013.4
20260507191525 11 296 1.6 3.2 0.00 0.46 0.13 92 1013.5
20260507191006 11 263 0.0 3.2 0.00 0.46 0.13 92 1013.4
20260507190506 11 313 0.0 3.2 0.00 0.46 0.13 92 1013.5
20260507190022 11 313 0.0 3.2 0.00 0.46 0.13 92 1013.7
20260507185508 11 313 0.0 6.4 0.00 0.46 0.13 92 1013.7
20260507185006 11 229 1.6 6.4 0.00 0.46 0.13 91 1013.9
20260507184519 11 286 0.0 6.4 0.00 0.46 0.13 91 1013.8
20260507184008 11 288 0.0 14.5 0.00 0.46 0.13 91 1013.9
20260507183509 12 323 0.0 14.5 0.00 0.46 0.13 91 1013.8
20260507183017 12 237 1.6 4.8 0.00 0.46 0.13 92 1013.6
20260507182506 11 227 0.0 6.4 0.00 0.46 0.13 92 1013.4
20260507182010 11 151 1.6 9.7 0.00 0.46 0.13 92 1013.4
20260507181511 11 232 3.2 9.7 0.00 0.46 0.13 91 1013.5
20260507181008 11 168 1.6 9.7 0.00 0.46 0.13 92 1013.5
20260507180510 11 321 0.0 11.3 0.00 0.46 0.13 92 1013.6
20260507180034 11 176 1.6 11.3 0.00 0.46 0.13 93 1013.5